Location: Shepherdstown, WV
(39.4326°N, 77.8042°W)
Time: 18:39:49
(UTC-04:00)

STARLINK-2617 - Pass Details

Date: 19 June 2021
Orbit: 348 x 351 km, 53.0° (Epoch: 26 July)

Event Time Altitude Azimuth Distance (km) Brightness Sun altitude
Exits shadow 04:57:18 - 178° (S) 2,006 6.1 -8.2°
Reaches altitude 10° 05:00:31 10° 133° (SE) 1,310 5.7 -7.7°
Maximum altitude 05:00:51 10° 127° (SE) 1,303 5.7 -7.6°
Drops below altitude 10° 05:01:10 10° 120° (ESE) 1,311 5.8 -7.6°
Sets 05:04:50 0° 72° (ENE) 2,161 8.2 -7.0°
